Aérodrome :
LOGIN :

S'inscrire | Disclaimer

   EN    FR    IT 

 










Légende :    VFR   VFR Marginal   IFR   IFR Intensif   IFR Très Intensif
Visi : 
Plafond : 
>= 8 km
>= 3000ft
5 à 8 km
1000 à 3000 ft
1500m à 5 km
500 à 1000 ft
800 à 1500m
200 à 500 ft
< 800m
< 200 ft
Symboles :   Orages  Brouillard  Fortes neiges  Fortes précipitations  Vent > 20 kt
SIGMETs :   Divers  Orages  Givrage  Turbulence  Onde Orograph.  Cendres Volcan.






- Altitude de l'aérodrome : 141 ft
- Code IATA : TGD


LYPG - Podgorica - Montenegro

DERNIER METAR :
  • 290530Z 36004KT 9999 FEW080 08/06 Q1013 NOSIG

METARs EXPIRÉS :
  • 290500Z 01003KT 9999 FEW080 08/07 Q1012 NOSIG
  • 290430Z VRB01KT 9999 FEW080 08/07 Q1012 NOSIG
  • 290400Z 00000KT 9999 SCT080 08/07 Q1012 NOSIG
  • 290330Z 02002KT 9999 SCT080 09/07 Q1012 NOSIG
  • 290300Z 00000KT 9999 SCT080 09/08 Q1012 NOSIG

TAF TAF LYPG
Valide du 29 à 06h jusqu'au 30 à 06h UTC


290500Z 2906/3006 16005KT 9999 FEW040 TX19/2913Z TN02/3005Z



MET'MAP, la Météo Aéronautique d'un coup d'oeil ! - Copyright ORBIFLY Décembre 2007 - Disclaimer

ORBIFLY MET'MAP TEAM :

Programmation & Développement : Alexandra Zaïnal
Sur une idée originale de : Baudouin d'Aumeries
Assistance à la programmation : Marc-Olivier Méhu
Soutien technique & logistique : Manuel Goepfert

Contact : metmap@orbifly.com




SOURCES & CREDITS :

   NOAA